Weather History for Columbus, NE

Change the Weather History Date:

Wednesday, January 1, 2014

  Actual Average Record
Temperature  
Mean Temperature 5 °F -  
Max Temperature 10 °F 28 °F 59 °F (1964)
Min Temperature -2 °F 9 °F -22 °F (1974)
Degree Days  
Heating Degree Days 60    
Moisture  
Dew Point 0 °F    
Average Humidity 71    
Maximum Humidity 85    
Minimum Humidity 66    
Precipitation  
Precipitation 0.00 in - - ()
Sea Level Pressure  
Sea Level Pressure 30.25 in    
Wind  
Wind Speed 12 mph (North)    
Max Wind Speed 18 mph    
Max Gust Speed 23 mph    
Visibility 8 miles    
Events      
Averages and records for this station are not official NWS values.
T = Trace of Precipitation, MM = Missing Value Source: NWS Daily Summary

Daily Weather History Graph

Daily Weather History Graph

Search for Another Location

Airport:

Trip Planner

Search our weather history database for the weather conditions in past years. The results will help you decide how hot, cold, wet, or windy it might be!

Date:

Astronomy

Jan. 01, 2014 Rise Set
Actual Time 7:55 AM CST 5:10 PM CST
Civil Twilight 7:24 AM CST 5:41 PM CST
Nautical Twilight 6:49 AM CST 6:16 PM CST
Astronomical Twilight 6:16 AM CST 6:50 PM CST
Moon 7:46 AM CST (1/1) 5:58 PM CST (1/1)
Length of Visible Light 10h 17m
Length of Day
9h 14m
New Moon, 0% of the Moon is Illuminated
Jan 1
New Moon
Jan 7
First Quarter
Jan 15
Full
Jan 23
Last Quarter
Jan 30
New

Hourly Weather History & Observations

Time (CST) Temp. Windchill Dew Point Humidity Pressure Visibility Wind Dir Wind Speed Gust Speed Precip Events Conditions
12:15 AM 10.4 °F -4.8 °F 1.4 °F 67% 30.11 in 10.0 mi ENE 12.7 mph - N/A   Overcast
12:35 AM 10.4 °F -6.0 °F 1.4 °F 67% 30.10 in 10.0 mi ENE 15.0 mph - N/A   Overcast
12:55 AM 10.4 °F -4.1 °F 1.4 °F 67% 30.10 in 10.0 mi ENE 11.5 mph - N/A   Overcast
1:15 AM 10.4 °F -3.3 °F 1.4 °F 67% 30.11 in 10.0 mi ENE 10.4 mph - N/A   Overcast
1:35 AM 10.4 °F -3.3 °F 1.4 °F 67% 30.12 in 10.0 mi NE 10.4 mph - N/A   Overcast
1:55 AM 10.4 °F -4.8 °F 1.4 °F 67% 30.11 in 10.0 mi NE 12.7 mph - N/A   Overcast
2:15 AM 10.4 °F -4.1 °F 1.4 °F 67% 30.12 in 10.0 mi NE 11.5 mph - N/A   Overcast
2:35 AM 10.4 °F -4.1 °F 1.4 °F 67% 30.13 in 10.0 mi ENE 11.5 mph - N/A   Overcast
2:55 AM 10.4 °F -4.1 °F 1.4 °F 67% 30.14 in 10.0 mi NE 11.5 mph - N/A   Mostly Cloudy
3:15 AM 10.4 °F -4.8 °F 1.4 °F 67% 30.16 in 10.0 mi NNE 12.7 mph - N/A   Overcast
3:35 AM 8.6 °F -8.3 °F 1.4 °F 73% 30.14 in 10.0 mi NE 15.0 mph - N/A   Overcast
3:55 AM 8.6 °F -7.7 °F 1.4 °F 73% 30.13 in 10.0 mi NNE 13.8 mph - N/A   Overcast
4:15 AM 8.6 °F -10.0 °F 1.4 °F 73% 30.13 in 10.0 mi NE 18.4 mph 21.9 mph N/A   Overcast
4:35 AM 8.6 °F -8.9 °F 1.4 °F 73% 30.13 in 10.0 mi NNE 16.1 mph - N/A   Overcast
4:55 AM 8.6 °F -7.0 °F 1.4 °F 73% 30.15 in 10.0 mi NNE 12.7 mph - N/A   Overcast
5:15 AM 8.6 °F -7.7 °F -0.4 °F 67% 30.15 in 10.0 mi NNE 13.8 mph - N/A   Overcast
5:35 AM 8.6 °F -7.7 °F -0.4 °F 67% 30.15 in 10.0 mi NNE 13.8 mph - N/A   Mostly Cloudy
5:55 AM 8.6 °F -7.0 °F -0.4 °F 67% 30.17 in 5.0 mi NNE 12.7 mph - N/A   Overcast
6:15 AM 6.8 °F -7.8 °F -0.4 °F 72% 30.17 in 1.8 mi NNE 10.4 mph - N/A   Overcast
6:35 AM 6.8 °F -8.6 °F -0.4 °F 72% 30.17 in 2.0 mi NNE 11.5 mph - N/A   Overcast
6:55 AM 6.8 °F -10.0 °F -0.4 °F 72% 30.17 in 2.0 mi NNE 13.8 mph - N/A   Overcast
7:15 AM 6.8 °F -9.3 °F -0.4 °F 72% 30.19 in 3.0 mi NNE 12.7 mph - N/A   Overcast
7:35 AM 6.8 °F -9.3 °F -0.4 °F 72% 30.21 in 3.0 mi NNE 12.7 mph - N/A   Overcast
7:55 AM 6.8 °F -8.6 °F -0.4 °F 72% 30.21 in 1.2 mi NNE 11.5 mph - N/A   Overcast
8:15 AM 6.8 °F -7.8 °F -0.4 °F 72% 30.21 in 1.2 mi NNE 10.4 mph - N/A   Overcast
8:35 AM 5.0 °F -13.6 °F -0.4 °F 78% 30.22 in 1.5 mi NNE 16.1 mph - N/A   Overcast
8:55 AM 5.0 °F -10.8 °F -2.2 °F 72% 30.23 in 2.5 mi North 11.5 mph - N/A   Overcast
9:15 AM 5.0 °F -10.8 °F -2.2 °F 72% 30.23 in 1.2 mi North 11.5 mph - N/A   Overcast
9:35 AM 5.0 °F -12.3 °F -0.4 °F 78% 30.24 in 2.0 mi NNE 13.8 mph - N/A   Overcast
9:55 AM 5.0 °F -11.6 °F -0.4 °F 78% 30.25 in 2.0 mi NNE 12.7 mph - N/A   Overcast
10:15 AM 6.8 °F -10.0 °F -0.4 °F 72% 30.26 in 5.0 mi North 13.8 mph - N/A   Mostly Cloudy
10:35 AM 6.8 °F -9.3 °F -0.4 °F 72% 30.27 in 2.5 mi North 12.7 mph - N/A   Mostly Cloudy
10:55 AM 6.8 °F -9.3 °F -0.4 °F 72% 30.27 in 5.0 mi NNE 12.7 mph - N/A   Mostly Cloudy
11:15 AM 6.8 °F -10.7 °F -0.4 °F 72% 30.27 in 10.0 mi North 15.0 mph - N/A   Overcast
11:35 AM 8.6 °F -7.7 °F -0.4 °F 67% 30.27 in 10.0 mi North 13.8 mph - N/A   Overcast
11:55 AM 8.6 °F -10.0 °F -0.4 °F 67% 30.27 in 10.0 mi North 18.4 mph - N/A   Overcast
12:15 PM 8.6 °F -9.5 °F -0.4 °F 67% 30.26 in 10.0 mi North 17.3 mph - N/A   Overcast
12:35 PM 8.6 °F -8.3 °F -0.4 °F 67% 30.26 in 10.0 mi North 15.0 mph 20.7 mph N/A   Overcast
12:55 PM 8.6 °F -8.3 °F -0.4 °F 67% 30.27 in 10.0 mi North 15.0 mph - N/A   Overcast
1:15 PM 8.6 °F -8.3 °F 1.4 °F 73% 30.26 in 10.0 mi North 15.0 mph 23.0 mph N/A   Overcast
1:35 PM 8.6 °F -7.7 °F 1.4 °F 73% 30.27 in 10.0 mi North 13.8 mph - N/A   Overcast
1:55 PM 8.6 °F -7.7 °F -0.4 °F 67% 30.26 in 10.0 mi North 13.8 mph - N/A   Overcast
2:15 PM 8.6 °F -7.0 °F -0.4 °F 67% 30.27 in 10.0 mi North 12.7 mph - N/A   Overcast
2:35 PM 8.6 °F -7.7 °F -0.4 °F 67% 30.28 in 10.0 mi North 13.8 mph - N/A   Overcast
2:55 PM 8.6 °F -7.7 °F -0.4 °F 67% 30.28 in 10.0 mi North 13.8 mph 18.4 mph N/A   Overcast
3:15 PM 8.6 °F -7.7 °F -0.4 °F 67% 30.29 in 10.0 mi North 13.8 mph - N/A   Overcast
3:35 PM 8.6 °F -8.3 °F 1.4 °F 73% 30.30 in 10.0 mi North 15.0 mph - N/A   Overcast
3:55 PM 8.6 °F -7.7 °F -0.4 °F 67% 30.30 in 10.0 mi North 13.8 mph 18.4 mph N/A   Overcast
4:15 PM 8.6 °F -8.3 °F -0.4 °F 67% 30.30 in 10.0 mi North 15.0 mph - N/A   Overcast
4:35 PM 8.6 °F -7.0 °F -0.4 °F 67% 30.31 in 10.0 mi North 12.7 mph - N/A   Overcast
4:55 PM 8.6 °F -3.7 °F 1.4 °F 73% 30.32 in 10.0 mi North 8.1 mph - N/A   Overcast
5:15 PM 8.6 °F -2.6 °F -0.4 °F 67% 30.32 in 10.0 mi North 6.9 mph - N/A   Overcast
5:35 PM 6.8 °F -2.0 °F -0.4 °F 72% 30.33 in 10.0 mi NNW 4.6 mph - N/A   Overcast
5:55 PM 6.8 °F -8.6 °F -0.4 °F 72% 30.34 in 10.0 mi NNW 11.5 mph - N/A   Mostly Cloudy
6:15 PM 6.8 °F -6.9 °F -0.4 °F 72% 30.34 in 10.0 mi NNW 9.2 mph - N/A   Clear
6:35 PM 6.8 °F -6.9 °F -2.2 °F 67% 30.35 in 10.0 mi NNW 9.2 mph - N/A   Clear
6:55 PM 6.8 °F -6.9 °F -0.4 °F 72% 30.36 in 10.0 mi North 9.2 mph - N/A   Mostly Cloudy
7:15 PM 6.8 °F -6.9 °F -0.4 °F 72% 30.36 in 10.0 mi NNW 9.2 mph - N/A   Overcast
7:35 PM 8.6 °F -4.7 °F -0.4 °F 67% 30.36 in 10.0 mi NNW 9.2 mph - N/A   Overcast
7:55 PM 8.6 °F -3.7 °F 1.4 °F 73% 30.37 in 10.0 mi North 8.1 mph - N/A   Overcast
8:15 PM 8.6 °F -6.3 °F 1.4 °F 73% 30.37 in 10.0 mi NNW 11.5 mph - N/A   Overcast
8:35 PM 8.6 °F -7.0 °F 1.4 °F 73% 30.38 in 10.0 mi NNW 12.7 mph - N/A   Overcast
8:55 PM 8.6 °F -4.7 °F 1.4 °F 73% 30.38 in 10.0 mi NNW 9.2 mph - N/A   Overcast
9:15 PM 8.6 °F -4.7 °F 1.4 °F 73% 30.38 in 10.0 mi NNW 9.2 mph - N/A   Overcast
9:35 PM 8.6 °F -3.7 °F 1.4 °F 73% 30.38 in 10.0 mi NNW 8.1 mph - N/A   Overcast
9:55 PM 6.8 °F -4.8 °F -0.4 °F 72% 30.38 in 10.0 mi NNW 6.9 mph - N/A   Partly Cloudy
10:15 PM 3.2 °F -7.8 °F -4.0 °F 72% 30.37 in 10.0 mi NNW 5.8 mph - N/A   Clear
10:35 PM 1.4 °F -8.3 °F -5.8 °F 72% 30.37 in 10.0 mi NNW 4.6 mph - N/A   Clear
10:55 PM -0.4 °F - -9.4 °F 66% 30.37 in 10.0 mi Calm Calm - N/A   Clear
11:15 PM -0.4 °F -8.3 °F -4.0 °F 85% 30.37 in 10.0 mi NNW 3.5 mph - N/A   Clear
11:35 PM -0.4 °F -8.3 °F -7.6 °F 72% 30.36 in 10.0 mi WNW 3.5 mph - N/A   Clear
11:55 PM -2.2 °F -10.4 °F -7.6 °F 78% 30.36 in 10.0 mi WNW 3.5 mph - N/A   Clear